Tracking 33744 objects as of 12-Apr-2026
HD Live streaming from Space Station
objects crossing your sky now

STARLINK-36805

Track STARLINK-36805 now!
10-day predictions
STARLINK-36805 is classified as:


NORAD ID: 68116
Int'l Code: 2026-044R
Perigee: 471.5 km
Apogee: 473.7 km
Inclination: 97.3 °
Period: 93.9 minutes
Semi major axis: 6843 km
RCS: Unknown
Launch date: March 8, 2026
Source: United States (US)
Launch site: AIR FORCE WESTERN TEST RANGE (AFWTR)
Your satellite tracking list
Your tracking list is empty




NASA's NSSDC Master Catalog

Two Line Element Set (TLE):
1 68116U 26044R   26102.50001156 -.00051943  00000-0 -16165-2 0  9992
2 68116  97.2852  63.7589 0001607  98.5040   3.8148 15.33467130  6367
Source of the keplerian elements: AFSPC